119  
ASUS41 KBGM 202110  
RWRBGM  
 
REGIONAL WEATHER ROUNDUP  
NATIONAL WEATHER SERVICE BINGHAMTON NY  
400 PM EST SUN JAN 20 2019  
 
NOTE: "FAIR" INDICATES FEW OR NO CLOUDS BELOW 12,000 FEET WITH NO  
SIGNIFICANT WEATHER AND/OR S TO VISIBILITY
.  
 
* = STATION(S) THAT DOES NOT REPORT PRECIPITATION, SUCH AS RAIN,  
SNOW, ETC, ALSO NO THUNDER OR FOG.
 
 
NYZ009-015>018-022>025-036-037-044>046-055>057-062-202200   
..CENTRAL NEW YORK
 
 
 
CITY SKY/WX TMP DP RH WIND PRES REMARKS
 
BINGHAMTON FOG 5 1 83 NW14G22 29.60R VSB 1/2 WCI -12  
CORTLAND LGT SNOW 9 3 78 NW5 29.68S WCI 0  
DANSVILLE LGT SNOW 10 2 69 NW18 29.83R WCI -8  
ELMIRA CLOUDY 11 0 61 NW13G23 29.74R WCI -4  
ITHACA LGT SNOW 7 3 84 NW20G26 29.71R VSB 3/4 WCI -13  
MONTICELLO LGT SNOW 10 7 85 NW21G29 29.49R FOG WCI -9  
PENN YAN LGT SNOW 9 1 70 NW16G25 29.75R WCI -8  
ROME CLOUDY 4 -3 73 W21 29.74R WCI -17  
SYRACUSE LGT SNOW 7 2 80 NW12 29.78R BLWGSNOWWCI -8  

 
 
PAZ038>040-043-044-047-048-072-202200   
..NORTHEAST PENNSYLVANIA
 
 
 
CITY SKY/WX TMP DP RH WIND PRES REMARKS
 
HAZLETON CLOUDY 14 9 79 NW15G25 29.58R WCI -1  
SCRANTON MIX PCPN 13 4 67 NW23G35 29.63R WCI -6  

 

 
KEY  
WCI = WIND CHILL INDEX  
VSB = VISIBILITY  
HX = HEAT INDEX  

 
 
 
CLICK HERE TO GO TO PREVIOUS BULLETINS.

The Nexlab NY Page
The Nexlab PA Page Main Text Page